Year,Month,Day,Hour,Minute,Value (Times are PST for temperature in C)
2011,03,30,00,00,6.00
2011,03,30,00,01,6.00
2011,03,30,00,02,6.00
2011,03,30,00,03,6.00
2011,03,30,00,04,6.00
2011,03,30,00,05,6.00
2011,03,30,00,06,6.00
2011,03,30,00,07,6.00
2011,03,30,00,08,5.90
2011,03,30,00,09,5.90
2011,03,30,00,10,5.90
2011,03,30,00,11,5.90
2011,03,30,00,12,5.90
2011,03,30,00,13,5.90
2011,03,30,00,14,5.90
2011,03,30,00,15,5.90
2011,03,30,00,16,5.90
2011,03,30,00,17,5.90
2011,03,30,00,18,5.90
2011,03,30,00,19,5.90
2011,03,30,00,20,5.90
2011,03,30,00,21,5.90
2011,03,30,00,22,6.00
2011,03,30,00,23,6.00
2011,03,30,00,24,6.00
2011,03,30,00,25,6.00
2011,03,30,00,26,6.00
2011,03,30,00,27,6.00
2011,03,30,00,28,6.00
2011,03,30,00,29,6.00
2011,03,30,00,30,6.00
2011,03,30,00,31,6.00
2011,03,30,00,32,6.00
2011,03,30,00,33,6.00
2011,03,30,00,34,6.00
2011,03,30,00,35,6.00
2011,03,30,00,36,6.00
2011,03,30,00,37,6.00
2011,03,30,00,38,6.00
2011,03,30,00,39,6.00
2011,03,30,00,40,6.00
2011,03,30,00,41,6.00
2011,03,30,00,42,6.00
2011,03,30,00,43,6.00
2011,03,30,00,44,6.00
2011,03,30,00,45,6.00
2011,03,30,00,46,6.00
2011,03,30,00,47,6.00
2011,03,30,00,48,6.00
2011,03,30,00,49,6.00
2011,03,30,00,50,6.00
2011,03,30,00,51,6.00
2011,03,30,00,52,6.00
2011,03,30,00,53,6.00
2011,03,30,00,54,6.00
2011,03,30,00,55,6.00
2011,03,30,00,56,6.00
2011,03,30,00,57,6.00
2011,03,30,00,58,6.00
2011,03,30,00,59,6.00
2011,03,30,01,00,6.00
2011,03,30,01,01,6.10
2011,03,30,01,02,6.10
2011,03,30,01,03,6.10
2011,03,30,01,04,6.10
2011,03,30,01,05,6.10
2011,03,30,01,06,6.10
2011,03,30,01,07,6.10
2011,03,30,01,08,6.10
2011,03,30,01,09,6.10
2011,03,30,01,10,6.10
2011,03,30,01,11,6.10
2011,03,30,01,12,6.10
2011,03,30,01,13,6.10
2011,03,30,01,14,6.10
2011,03,30,01,15,6.20
2011,03,30,01,16,6.20
2011,03,30,01,17,6.20
2011,03,30,01,18,6.20
2011,03,30,01,19,6.20
2011,03,30,01,20,6.20
2011,03,30,01,21,6.20
2011,03,30,01,22,6.20
2011,03,30,01,23,6.20
2011,03,30,01,24,6.20
2011,03,30,01,25,6.20
2011,03,30,01,26,6.20
2011,03,30,01,27,6.20
2011,03,30,01,28,6.20
2011,03,30,01,29,6.20
2011,03,30,01,30,6.20
2011,03,30,01,31,6.20
2011,03,30,01,32,6.20
2011,03,30,01,33,6.20
2011,03,30,01,34,6.20
2011,03,30,01,35,6.20
2011,03,30,01,36,6.20
2011,03,30,01,37,6.20
2011,03,30,01,38,6.20
2011,03,30,01,39,6.20
2011,03,30,01,40,6.20
2011,03,30,01,41,6.20
2011,03,30,01,42,6.20
2011,03,30,01,43,6.30
2011,03,30,01,44,6.30
2011,03,30,01,45,6.30
2011,03,30,01,46,6.30
2011,03,30,01,47,6.30
2011,03,30,01,48,6.30
2011,03,30,01,49,6.30
2011,03,30,01,50,6.30
2011,03,30,01,51,6.30
2011,03,30,01,52,6.30
2011,03,30,01,53,6.30
2011,03,30,01,54,6.30
2011,03,30,01,55,6.30
2011,03,30,01,56,6.30
2011,03,30,01,57,6.30
2011,03,30,01,58,6.30
2011,03,30,01,59,6.30
2011,03,30,02,00,6.30
2011,03,30,02,01,6.30
2011,03,30,02,02,6.30
2011,03,30,02,03,6.30
2011,03,30,02,04,6.30
2011,03,30,02,05,6.30
2011,03,30,02,06,6.30
2011,03,30,02,07,6.30
2011,03,30,02,08,6.30
2011,03,30,02,09,6.30
2011,03,30,02,10,6.30
2011,03,30,02,11,6.30
2011,03,30,02,12,6.30
2011,03,30,02,13,6.30
2011,03,30,02,14,6.30
2011,03,30,02,15,6.30
2011,03,30,02,16,6.30
2011,03,30,02,17,6.30
2011,03,30,02,18,6.30
2011,03,30,02,19,6.30
2011,03,30,02,20,6.30
2011,03,30,02,21,6.30
2011,03,30,02,22,6.30
2011,03,30,02,23,6.30
2011,03,30,02,24,6.20
2011,03,30,02,25,6.20
2011,03,30,02,26,6.20
2011,03,30,02,27,6.20
2011,03,30,02,28,6.20
2011,03,30,02,29,6.20
2011,03,30,02,30,6.20
2011,03,30,02,31,6.20
2011,03,30,02,32,6.20
2011,03,30,02,33,6.20
2011,03,30,02,34,6.20
2011,03,30,02,35,6.20
2011,03,30,02,36,6.20
2011,03,30,02,37,6.20
2011,03,30,02,38,6.20
2011,03,30,02,39,6.20
2011,03,30,02,40,6.20
2011,03,30,02,41,6.20
2011,03,30,02,42,6.20
2011,03,30,02,43,6.20
2011,03,30,02,44,6.20
2011,03,30,02,45,6.20
2011,03,30,02,46,6.20
2011,03,30,02,47,6.20
2011,03,30,02,48,6.30
2011,03,30,02,49,6.30
2011,03,30,02,50,6.30
2011,03,30,02,51,6.30
2011,03,30,02,52,6.30
2011,03,30,02,53,6.30
2011,03,30,02,54,6.30
2011,03,30,02,55,6.30
2011,03,30,02,56,6.30
2011,03,30,02,57,6.30
2011,03,30,02,58,6.20
2011,03,30,02,59,6.20
2011,03,30,03,00,6.20
2011,03,30,03,01,6.20
2011,03,30,03,02,6.20
2011,03,30,03,03,6.20
2011,03,30,03,04,6.20
2011,03,30,03,05,6.20
2011,03,30,03,06,6.20
2011,03,30,03,07,6.20
2011,03,30,03,08,6.20
2011,03,30,03,09,6.20
2011,03,30,03,10,6.20
2011,03,30,03,11,6.20
2011,03,30,03,12,6.20
2011,03,30,03,13,6.20
2011,03,30,03,14,6.30
2011,03,30,03,15,6.30
2011,03,30,03,16,6.30
2011,03,30,03,17,6.40
2011,03,30,03,18,6.40
2011,03,30,03,19,6.50
2011,03,30,03,20,6.50
2011,03,30,03,21,6.50
2011,03,30,03,22,6.60
2011,03,30,03,23,6.60
2011,03,30,03,24,6.60
2011,03,30,03,25,6.70
2011,03,30,03,26,6.80
2011,03,30,03,27,6.80
2011,03,30,03,28,6.80
2011,03,30,03,29,6.80
2011,03,30,03,30,6.80
2011,03,30,03,31,6.80
2011,03,30,03,32,6.80
2011,03,30,03,33,6.80
2011,03,30,03,34,7.00
2011,03,30,03,35,7.10
2011,03,30,03,36,7.20
2011,03,30,03,37,7.20
2011,03,30,03,38,7.30
2011,03,30,03,39,7.30
2011,03,30,03,40,7.30
2011,03,30,03,41,7.30
2011,03,30,03,42,7.40
2011,03,30,03,43,7.30
2011,03,30,03,44,7.30
2011,03,30,03,45,7.30
2011,03,30,03,46,7.30
2011,03,30,03,47,7.30
2011,03,30,03,48,7.30
2011,03,30,03,49,7.30
2011,03,30,03,50,7.40
2011,03,30,03,51,7.40
2011,03,30,03,52,7.30
2011,03,30,03,53,7.30
2011,03,30,03,54,7.30
2011,03,30,03,55,7.30
2011,03,30,03,56,7.20
2011,03,30,03,57,7.20
2011,03,30,03,58,7.20
2011,03,30,03,59,7.20
2011,03,30,04,00,7.20
2011,03,30,04,01,7.20
2011,03,30,04,02,7.20
2011,03,30,04,03,7.20
2011,03,30,04,04,7.20
2011,03,30,04,05,7.20
2011,03,30,04,06,7.20
2011,03,30,04,07,7.20
2011,03,30,04,08,7.20
2011,03,30,04,09,7.10
2011,03,30,04,10,7.10
2011,03,30,04,11,7.10
2011,03,30,04,12,7.10
2011,03,30,04,13,7.10
2011,03,30,04,14,7.10
2011,03,30,04,15,7.10
2011,03,30,04,16,7.10
2011,03,30,04,17,7.10
2011,03,30,04,18,7.10
2011,03,30,04,19,7.10
2011,03,30,04,20,7.10
2011,03,30,04,21,7.10
2011,03,30,04,22,7.00
2011,03,30,04,23,7.00
2011,03,30,04,24,7.00
2011,03,30,04,25,6.90
2011,03,30,04,26,7.00
2011,03,30,04,27,7.00
2011,03,30,04,28,7.10
2011,03,30,04,29,7.10
2011,03,30,04,30,7.20
2011,03,30,04,31,7.20
2011,03,30,04,32,7.20
2011,03,30,04,33,7.20
2011,03,30,04,34,7.20
2011,03,30,04,35,7.20
2011,03,30,04,36,7.30
2011,03,30,04,37,7.30
2011,03,30,04,38,7.30
2011,03,30,04,39,7.30
2011,03,30,04,40,7.30
2011,03,30,04,41,7.30
2011,03,30,04,42,7.30
2011,03,30,04,43,7.30
2011,03,30,04,44,7.30
2011,03,30,04,45,7.30
2011,03,30,04,46,7.30
2011,03,30,04,47,7.30
2011,03,30,04,48,7.30
2011,03,30,04,49,7.30
2011,03,30,04,50,7.30
2011,03,30,04,51,7.20
2011,03,30,04,52,7.20
2011,03,30,04,53,7.20
2011,03,30,04,54,7.10
2011,03,30,04,55,7.10
2011,03,30,04,56,7.00
2011,03,30,04,57,7.00
2011,03,30,04,58,7.00
2011,03,30,04,59,6.90
2011,03,30,05,00,6.90
2011,03,30,05,01,6.90
2011,03,30,05,02,6.80
2011,03,30,05,03,6.80
2011,03,30,05,04,6.80
2011,03,30,05,05,6.80
2011,03,30,05,06,6.70
2011,03,30,05,07,6.70
2011,03,30,05,08,6.70
2011,03,30,05,09,6.70
2011,03,30,05,10,6.70
2011,03,30,05,11,6.70
2011,03,30,05,12,6.70
2011,03,30,05,13,6.70
2011,03,30,05,14,6.70
2011,03,30,05,15,6.70
2011,03,30,05,16,6.70
2011,03,30,05,17,6.70
2011,03,30,05,18,6.70
2011,03,30,05,19,6.70
2011,03,30,05,20,6.70
2011,03,30,05,21,6.70
2011,03,30,05,22,6.70
2011,03,30,05,23,6.70
2011,03,30,05,24,6.80
2011,03,30,05,25,6.80
2011,03,30,05,26,6.80
2011,03,30,05,27,6.90
2011,03,30,05,28,6.90
2011,03,30,05,29,6.90
2011,03,30,05,30,6.90
2011,03,30,05,31,6.90
2011,03,30,05,32,6.90
2011,03,30,05,33,6.90
2011,03,30,05,34,6.90
2011,03,30,05,35,7.00
2011,03,30,05,36,7.00
2011,03,30,05,37,7.10
2011,03,30,05,38,7.10
2011,03,30,05,39,7.10
2011,03,30,05,40,7.10
2011,03,30,05,41,7.20
2011,03,30,05,42,7.20
2011,03,30,05,43,7.20
2011,03,30,05,44,7.20
2011,03,30,05,45,7.20
2011,03,30,05,46,7.20
2011,03,30,05,47,7.20
2011,03,30,05,48,7.30
2011,03,30,05,49,7.30
2011,03,30,05,50,7.30
2011,03,30,05,51,7.30
2011,03,30,05,52,7.30
2011,03,30,05,53,7.30
2011,03,30,05,54,7.30
2011,03,30,05,55,7.30
2011,03,30,05,56,7.30
2011,03,30,05,57,7.30
2011,03,30,05,58,7.30
2011,03,30,05,59,7.30
2011,03,30,06,00,7.30
2011,03,30,06,01,7.30
2011,03,30,06,02,7.30
2011,03,30,06,03,7.20
2011,03,30,06,04,7.20
2011,03,30,06,05,7.20
2011,03,30,06,06,7.20
2011,03,30,06,07,7.20
2011,03,30,06,08,7.20
2011,03,30,06,09,7.20
2011,03,30,06,10,7.20
2011,03,30,06,11,7.30
2011,03,30,06,12,7.30
2011,03,30,06,13,7.40
2011,03,30,06,14,7.40
2011,03,30,06,15,7.40
2011,03,30,06,16,7.50
2011,03,30,06,17,7.50
2011,03,30,06,18,7.50
2011,03,30,06,19,7.60
2011,03,30,06,20,7.60
2011,03,30,06,21,7.60
2011,03,30,06,22,7.60
2011,03,30,06,23,7.60
2011,03,30,06,24,7.60
2011,03,30,06,25,7.60
2011,03,30,06,26,7.60
2011,03,30,06,27,7.60
2011,03,30,06,28,7.50
2011,03,30,06,29,7.50
2011,03,30,06,30,7.50
2011,03,30,06,31,7.50
2011,03,30,06,32,7.40
2011,03,30,06,33,7.40
2011,03,30,06,34,7.40
2011,03,30,06,35,7.40
2011,03,30,06,36,7.40
2011,03,30,06,37,7.40
2011,03,30,06,38,7.40
2011,03,30,06,39,7.40
2011,03,30,06,40,7.40
2011,03,30,06,41,7.40
2011,03,30,06,42,7.50
2011,03,30,06,43,7.50
2011,03,30,06,44,7.50
2011,03,30,06,45,7.50
2011,03,30,06,46,7.50
2011,03,30,06,47,7.50
2011,03,30,06,48,7.50
2011,03,30,06,49,7.50
2011,03,30,06,50,7.50
2011,03,30,06,51,7.50
2011,03,30,06,52,7.40
2011,03,30,06,53,7.40
2011,03,30,06,54,7.50
2011,03,30,06,55,7.40
2011,03,30,06,56,7.40
2011,03,30,06,57,7.40
2011,03,30,06,58,7.40
2011,03,30,06,59,7.40
2011,03,30,07,00,7.40
2011,03,30,07,01,7.40
2011,03,30,07,02,7.40
2011,03,30,07,03,7.40
2011,03,30,07,04,7.40
2011,03,30,07,05,7.40
2011,03,30,07,06,7.40
2011,03,30,07,07,7.40
2011,03,30,07,08,7.40
2011,03,30,07,09,7.40
2011,03,30,07,10,7.40
2011,03,30,07,11,7.40
2011,03,30,07,12,7.40
2011,03,30,07,13,7.40
2011,03,30,07,14,7.40
2011,03,30,07,15,7.40
2011,03,30,07,16,7.40
2011,03,30,07,17,7.40
2011,03,30,07,18,7.40
2011,03,30,07,19,7.40
2011,03,30,07,20,7.50
2011,03,30,07,21,7.50
2011,03,30,07,22,7.50
2011,03,30,07,23,7.50
2011,03,30,07,24,7.60
2011,03,30,07,25,7.60
2011,03,30,07,26,7.70
2011,03,30,07,27,7.80
2011,03,30,07,28,7.90
2011,03,30,07,29,7.90
2011,03,30,07,30,8.00
2011,03,30,07,31,8.10
2011,03,30,07,32,8.20
2011,03,30,07,33,8.20
2011,03,30,07,34,8.20
2011,03,30,07,35,8.30
2011,03,30,07,36,8.40
2011,03,30,07,37,8.50
2011,03,30,07,38,8.50
2011,03,30,07,39,8.60
2011,03,30,07,40,8.70
2011,03,30,07,41,8.80
2011,03,30,07,42,8.80
2011,03,30,07,43,8.80
2011,03,30,07,44,8.90
2011,03,30,07,45,8.90
2011,03,30,07,46,8.90
2011,03,30,07,47,8.90
2011,03,30,07,48,9.00
2011,03,30,07,49,9.00
2011,03,30,07,50,9.00
2011,03,30,07,51,9.10
2011,03,30,07,52,9.10
2011,03,30,07,53,9.10
2011,03,30,07,54,9.10
2011,03,30,07,55,9.10
2011,03,30,07,56,9.10
2011,03,30,07,57,9.10
2011,03,30,07,58,9.10
2011,03,30,07,59,9.10
2011,03,30,08,00,9.20
2011,03,30,08,01,9.20
2011,03,30,08,02,9.20
2011,03,30,08,03,9.20
2011,03,30,08,04,9.30
2011,03,30,08,05,9.30
2011,03,30,08,06,9.30
2011,03,30,08,07,9.30
2011,03,30,08,08,9.30
2011,03,30,08,09,9.40
2011,03,30,08,10,9.40
2011,03,30,08,11,9.40
2011,03,30,08,12,9.40
2011,03,30,08,13,9.40
2011,03,30,08,14,9.40
2011,03,30,08,15,9.40
2011,03,30,08,16,9.40
2011,03,30,08,17,9.40
2011,03,30,08,18,9.40
2011,03,30,08,19,9.40
2011,03,30,08,20,9.40
2011,03,30,08,21,9.50
2011,03,30,08,22,9.40
2011,03,30,08,23,9.40
2011,03,30,08,24,9.40
2011,03,30,08,25,9.40
2011,03,30,08,26,9.40
2011,03,30,08,27,9.30
2011,03,30,08,28,9.20
2011,03,30,08,29,9.20
2011,03,30,08,30,9.10
2011,03,30,08,31,9.10
2011,03,30,08,32,9.00
2011,03,30,08,33,9.00
2011,03,30,08,34,8.90
2011,03,30,08,35,8.90
2011,03,30,08,36,8.90
2011,03,30,08,37,8.90
2011,03,30,08,38,8.90
2011,03,30,08,39,8.80
2011,03,30,08,40,8.80
2011,03,30,08,41,8.80
2011,03,30,08,42,8.80
2011,03,30,08,43,8.80
2011,03,30,08,44,8.80
2011,03,30,08,45,8.80
2011,03,30,08,46,8.90
2011,03,30,08,47,8.90
2011,03,30,08,48,8.90
2011,03,30,08,49,8.90
2011,03,30,08,50,8.90
2011,03,30,08,51,8.90
2011,03,30,08,52,9.00
2011,03,30,08,53,9.00
2011,03,30,08,54,9.00
2011,03,30,08,55,9.10
2011,03,30,08,56,9.10
2011,03,30,08,57,9.10
2011,03,30,08,58,9.10
2011,03,30,08,59,9.10
2011,03,30,09,00,9.10
2011,03,30,09,01,9.10
2011,03,30,09,02,9.10
2011,03,30,09,03,9.10
2011,03,30,09,04,9.20
2011,03,30,09,05,9.20
2011,03,30,09,06,9.20
2011,03,30,09,07,9.30
2011,03,30,09,08,9.30
2011,03,30,09,09,9.30
2011,03,30,09,10,9.30
2011,03,30,09,11,9.40
2011,03,30,09,12,9.40
2011,03,30,09,13,9.40
2011,03,30,09,14,9.40
2011,03,30,09,15,9.40
2011,03,30,09,16,9.40
2011,03,30,09,17,9.50
2011,03,30,09,18,9.50
2011,03,30,09,19,9.50
2011,03,30,09,20,9.60
2011,03,30,09,21,9.60
2011,03,30,09,22,9.60
2011,03,30,09,23,9.60
2011,03,30,09,24,9.70
2011,03,30,09,25,9.70
2011,03,30,09,26,9.70
2011,03,30,09,27,9.70
2011,03,30,09,28,9.70
2011,03,30,09,29,9.70
2011,03,30,09,30,9.70
2011,03,30,09,31,9.80
2011,03,30,09,32,9.80
2011,03,30,09,33,9.80
2011,03,30,09,34,9.80
2011,03,30,09,35,9.80
2011,03,30,09,36,9.80
2011,03,30,09,37,9.80
2011,03,30,09,38,9.80
2011,03,30,09,39,9.80
2011,03,30,09,40,9.80
2011,03,30,09,41,9.80
2011,03,30,09,42,9.80
2011,03,30,09,43,9.80
2011,03,30,09,44,9.80
2011,03,30,09,45,9.80
2011,03,30,09,46,9.80
2011,03,30,09,47,9.90
2011,03,30,09,48,9.90
2011,03,30,09,49,9.90
2011,03,30,09,50,9.90
2011,03,30,09,51,9.90
2011,03,30,09,52,9.90
2011,03,30,09,53,9.90
2011,03,30,09,54,9.90
2011,03,30,09,55,9.90
2011,03,30,09,56,9.90
2011,03,30,09,57,10.00
2011,03,30,09,58,10.00
2011,03,30,09,59,10.00
2011,03,30,10,00,9.90
2011,03,30,10,01,9.90
2011,03,30,10,02,9.90
2011,03,30,10,03,9.80
2011,03,30,10,04,9.80
2011,03,30,10,05,9.80
2011,03,30,10,06,9.80
2011,03,30,10,07,9.80
2011,03,30,10,08,9.80
2011,03,30,10,09,9.80
2011,03,30,10,10,9.80
2011,03,30,10,11,9.70
2011,03,30,10,12,9.70
2011,03,30,10,13,9.70
2011,03,30,10,14,9.70
2011,03,30,10,15,9.70
2011,03,30,10,16,9.70
2011,03,30,10,17,9.70
2011,03,30,10,18,9.70
2011,03,30,10,19,9.60
2011,03,30,10,20,9.70
2011,03,30,10,21,9.70
2011,03,30,10,22,9.70
2011,03,30,10,23,9.70
2011,03,30,10,24,9.70
2011,03,30,10,25,9.70
2011,03,30,10,26,9.70
2011,03,30,10,27,9.70
2011,03,30,10,28,9.70
2011,03,30,10,29,9.70
2011,03,30,10,30,9.80
2011,03,30,10,31,9.80
2011,03,30,10,32,9.80
2011,03,30,10,33,9.80
2011,03,30,10,34,9.80
2011,03,30,10,35,9.80
2011,03,30,10,36,9.80
2011,03,30,10,37,9.90
2011,03,30,10,38,9.90
2011,03,30,10,39,9.90
2011,03,30,10,40,9.90
2011,03,30,10,41,10.00
2011,03,30,10,42,10.00
2011,03,30,10,43,10.10
2011,03,30,10,44,10.10
2011,03,30,10,45,10.10
2011,03,30,10,46,10.10
2011,03,30,10,47,10.10
2011,03,30,10,48,10.10
2011,03,30,10,49,10.10
2011,03,30,10,50,10.20
2011,03,30,10,51,10.20
2011,03,30,10,52,10.20
2011,03,30,10,53,10.20
2011,03,30,10,54,10.20
2011,03,30,10,55,10.20
2011,03,30,10,56,10.20
2011,03,30,10,57,10.20
2011,03,30,10,58,10.20
2011,03,30,10,59,10.30
2011,03,30,11,00,10.30
2011,03,30,11,01,10.30
2011,03,30,11,02,10.30
2011,03,30,11,03,10.30
2011,03,30,11,04,10.30
2011,03,30,11,05,10.40
2011,03,30,11,06,10.40
2011,03,30,11,07,10.40
2011,03,30,11,08,10.40
2011,03,30,11,09,10.40
2011,03,30,11,10,10.40
2011,03,30,11,11,10.40
2011,03,30,11,12,10.40
2011,03,30,11,13,10.40
2011,03,30,11,14,10.40
2011,03,30,11,15,10.40
2011,03,30,11,16,10.40
2011,03,30,11,17,10.40
2011,03,30,11,18,10.40
2011,03,30,11,19,10.40
2011,03,30,11,20,10.40
2011,03,30,11,21,10.50
2011,03,30,11,22,10.50
2011,03,30,11,23,10.50
2011,03,30,11,24,10.50
2011,03,30,11,25,10.40
2011,03,30,11,26,10.50
2011,03,30,11,27,10.50
2011,03,30,11,28,10.50
2011,03,30,11,29,10.50
2011,03,30,11,30,10.50
2011,03,30,11,31,10.50
2011,03,30,11,32,10.50
2011,03,30,11,33,10.50
2011,03,30,11,34,10.50
2011,03,30,11,35,10.50
2011,03,30,11,36,10.50
2011,03,30,11,37,10.50
2011,03,30,11,38,10.60
2011,03,30,11,39,10.60
2011,03,30,11,40,10.60
2011,03,30,11,41,10.60
2011,03,30,11,42,10.70
2011,03,30,11,43,10.70
2011,03,30,11,44,10.70
2011,03,30,11,45,10.70
2011,03,30,11,46,10.70
2011,03,30,11,47,10.70
2011,03,30,11,48,10.70
2011,03,30,11,49,10.70
2011,03,30,11,50,10.70
2011,03,30,11,51,10.70
2011,03,30,11,52,10.70
2011,03,30,11,53,10.70
2011,03,30,11,54,10.70
2011,03,30,11,55,10.70
2011,03,30,11,56,10.70
2011,03,30,11,57,10.70
2011,03,30,11,58,10.70
2011,03,30,11,59,10.70
2011,03,30,12,00,10.70
2011,03,30,12,01,10.70
2011,03,30,12,02,10.70
2011,03,30,12,03,10.70
2011,03,30,12,04,10.70
2011,03,30,12,05,10.70
2011,03,30,12,06,10.70
2011,03,30,12,07,10.60
2011,03,30,12,08,10.60
2011,03,30,12,09,10.60
2011,03,30,12,10,10.60
2011,03,30,12,11,10.60
2011,03,30,12,12,10.60
2011,03,30,12,13,10.60
2011,03,30,12,14,10.60
2011,03,30,12,15,10.60
2011,03,30,12,16,10.60
2011,03,30,12,17,10.60
2011,03,30,12,18,10.60
2011,03,30,12,19,10.60
2011,03,30,12,20,10.60
2011,03,30,12,21,10.60
2011,03,30,12,22,10.60
2011,03,30,12,23,10.70
2011,03,30,12,24,10.70
2011,03,30,12,25,10.70
2011,03,30,12,26,10.70
2011,03,30,12,27,10.70
2011,03,30,12,28,10.70
2011,03,30,12,29,10.70
2011,03,30,12,30,10.70
2011,03,30,12,31,10.70
2011,03,30,12,32,10.70
2011,03,30,12,33,10.70
2011,03,30,12,34,10.70
2011,03,30,12,35,10.70
2011,03,30,12,36,10.70
2011,03,30,12,37,10.70
2011,03,30,12,38,10.60
2011,03,30,12,39,10.60
2011,03,30,12,40,10.60
2011,03,30,12,41,10.60
2011,03,30,12,42,10.60
2011,03,30,12,43,10.60
2011,03,30,12,44,10.60
2011,03,30,12,45,10.60
2011,03,30,12,46,10.60
2011,03,30,12,47,10.60
2011,03,30,12,48,10.60
2011,03,30,12,49,10.60
2011,03,30,12,50,10.60
2011,03,30,12,51,10.60
2011,03,30,12,52,10.60
2011,03,30,12,53,10.60
2011,03,30,12,54,10.70
2011,03,30,12,55,10.70
2011,03,30,12,56,10.70
2011,03,30,12,57,10.70
2011,03,30,12,58,10.70
2011,03,30,12,59,10.70
2011,03,30,13,00,10.70
2011,03,30,13,01,10.80
2011,03,30,13,02,10.80
2011,03,30,13,03,10.80
2011,03,30,13,04,10.80
2011,03,30,13,05,10.70
2011,03,30,13,06,10.70
2011,03,30,13,07,10.70
2011,03,30,13,08,10.80
2011,03,30,13,09,10.80
2011,03,30,13,10,10.80
2011,03,30,13,11,10.80
2011,03,30,13,12,10.80
2011,03,30,13,13,10.80
2011,03,30,13,14,10.80
2011,03,30,13,15,10.80
2011,03,30,13,16,10.90
2011,03,30,13,17,10.90
2011,03,30,13,18,10.90
2011,03,30,13,19,10.80
2011,03,30,13,20,10.80
2011,03,30,13,21,10.80
2011,03,30,13,22,10.80
2011,03,30,13,23,10.80
2011,03,30,13,24,10.80
2011,03,30,13,25,10.80
2011,03,30,13,26,10.80
2011,03,30,13,27,10.80
2011,03,30,13,28,10.80
2011,03,30,13,29,10.80
2011,03,30,13,30,10.90
2011,03,30,13,31,10.90
2011,03,30,13,32,10.90
2011,03,30,13,33,11.00
2011,03,30,13,34,11.00
2011,03,30,13,35,11.10
2011,03,30,13,36,11.10
2011,03,30,13,37,11.10
2011,03,30,13,38,11.20
2011,03,30,13,39,11.20
2011,03,30,13,40,11.20
2011,03,30,13,41,11.20
2011,03,30,13,42,11.20
2011,03,30,13,43,11.30
2011,03,30,13,44,11.30
2011,03,30,13,45,11.30
2011,03,30,13,46,11.30
2011,03,30,13,47,11.30
2011,03,30,13,48,11.30
2011,03,30,13,49,11.40
2011,03,30,13,50,11.40
2011,03,30,13,51,11.40
2011,03,30,13,52,11.40
2011,03,30,13,53,11.40
2011,03,30,13,54,11.40
2011,03,30,13,55,11.50
2011,03,30,13,56,11.50
2011,03,30,13,57,11.50
2011,03,30,13,58,11.50
2011,03,30,13,59,11.50
2011,03,30,14,00,11.50
2011,03,30,14,01,11.40
2011,03,30,14,02,11.40
2011,03,30,14,03,11.40
2011,03,30,14,04,11.30
2011,03,30,14,05,11.30
2011,03,30,14,06,11.30
2011,03,30,14,07,11.30
2011,03,30,14,08,11.30
2011,03,30,14,09,11.30
2011,03,30,14,10,11.30
2011,03,30,14,11,11.30
2011,03,30,14,12,11.30
2011,03,30,14,13,11.30
2011,03,30,14,14,11.30
2011,03,30,14,15,11.30
2011,03,30,14,16,11.40
2011,03,30,14,17,11.40
2011,03,30,14,18,11.40
2011,03,30,14,19,11.40
2011,03,30,14,20,11.40
2011,03,30,14,21,11.40
2011,03,30,14,22,11.40
2011,03,30,14,23,11.40
2011,03,30,14,24,11.40
2011,03,30,14,25,11.40
2011,03,30,14,26,11.40
2011,03,30,14,27,11.40
2011,03,30,14,28,11.40
2011,03,30,14,29,11.40
2011,03,30,14,30,11.30
2011,03,30,14,31,11.30
2011,03,30,14,32,11.30
2011,03,30,14,33,11.30
2011,03,30,14,34,11.30
2011,03,30,14,35,11.40
2011,03,30,14,36,11.30
2011,03,30,14,37,11.30
2011,03,30,14,38,11.40
2011,03,30,14,39,11.40
2011,03,30,14,40,11.40
2011,03,30,14,41,11.40
2011,03,30,14,42,11.40
2011,03,30,14,43,11.40
2011,03,30,14,44,11.40
2011,03,30,14,45,11.40
2011,03,30,14,46,11.40
2011,03,30,14,47,11.40
2011,03,30,14,48,11.40
2011,03,30,14,49,11.40
2011,03,30,14,50,11.40
2011,03,30,14,51,11.40
2011,03,30,14,52,11.40
2011,03,30,14,53,11.40
2011,03,30,14,54,11.50
2011,03,30,14,55,11.50
2011,03,30,14,56,11.50
2011,03,30,14,57,11.50
2011,03,30,14,58,11.50
2011,03,30,14,59,11.60
2011,03,30,15,00,11.60
2011,03,30,15,01,11.60
2011,03,30,15,02,11.60
2011,03,30,15,03,11.60
2011,03,30,15,04,11.60
2011,03,30,15,05,11.70
2011,03,30,15,06,11.70
2011,03,30,15,07,11.70
2011,03,30,15,08,11.70
2011,03,30,15,09,11.70
2011,03,30,15,10,11.70
2011,03,30,15,11,11.80
2011,03,30,15,12,11.80
2011,03,30,15,13,11.80
2011,03,30,15,14,11.90
2011,03,30,15,15,11.90
2011,03,30,15,16,11.90
2011,03,30,15,17,12.00
2011,03,30,15,18,12.00
2011,03,30,15,19,12.00
2011,03,30,15,20,12.00
2011,03,30,15,21,11.90
2011,03,30,15,22,11.90
2011,03,30,15,23,11.90
2011,03,30,15,24,11.90
2011,03,30,15,25,11.90
2011,03,30,15,26,12.00
2011,03,30,15,27,12.00
2011,03,30,15,28,12.00
2011,03,30,15,29,11.90
2011,03,30,15,30,12.00
2011,03,30,15,31,12.00
2011,03,30,15,32,12.00
2011,03,30,15,33,12.00
2011,03,30,15,34,12.00
2011,03,30,15,35,12.00
2011,03,30,15,36,12.00
2011,03,30,15,37,12.00
2011,03,30,15,38,12.00
2011,03,30,15,39,12.10
2011,03,30,15,40,12.10
2011,03,30,15,41,12.10
2011,03,30,15,42,12.10
2011,03,30,15,43,12.10
2011,03,30,15,44,12.10
2011,03,30,15,45,12.00
2011,03,30,15,46,12.00
2011,03,30,15,47,12.00
2011,03,30,15,48,11.90
2011,03,30,15,49,11.90
2011,03,30,15,50,11.80
2011,03,30,15,51,11.80
2011,03,30,15,52,11.80
2011,03,30,15,53,11.80
2011,03,30,15,54,11.70
2011,03,30,15,55,11.70
2011,03,30,15,56,11.70
2011,03,30,15,57,11.70
2011,03,30,15,58,11.60
2011,03,30,15,59,11.60
2011,03,30,16,00,11.60
2011,03,30,16,01,11.60
2011,03,30,16,02,11.50
2011,03,30,16,03,11.50
2011,03,30,16,04,11.40
2011,03,30,16,05,11.40
2011,03,30,16,06,11.40
2011,03,30,16,07,11.30
2011,03,30,16,08,11.30
2011,03,30,16,09,11.30
2011,03,30,16,10,11.20
2011,03,30,16,11,11.20
2011,03,30,16,12,11.20
2011,03,30,16,13,11.10
2011,03,30,16,14,11.10
2011,03,30,16,15,11.10
2011,03,30,16,16,11.10
2011,03,30,16,17,11.10
2011,03,30,16,18,11.00
2011,03,30,16,19,11.00
2011,03,30,16,20,11.00
2011,03,30,16,21,10.90
2011,03,30,16,22,10.90
2011,03,30,16,23,10.90
2011,03,30,16,24,10.90
2011,03,30,16,25,10.90
2011,03,30,16,26,10.90
2011,03,30,16,27,10.90
2011,03,30,16,28,10.90
2011,03,30,16,29,10.90
2011,03,30,16,30,10.90
2011,03,30,16,31,10.80
2011,03,30,16,32,10.90
2011,03,30,16,33,10.90
2011,03,30,16,34,10.90
2011,03,30,16,35,10.90
2011,03,30,16,36,10.90
2011,03,30,16,37,10.90
2011,03,30,16,38,10.90
2011,03,30,16,39,10.90
2011,03,30,16,40,10.90
2011,03,30,16,41,10.90
2011,03,30,16,42,10.90
2011,03,30,16,43,10.90
2011,03,30,16,44,10.90
2011,03,30,16,45,10.90
2011,03,30,16,46,10.90
2011,03,30,16,47,10.90
2011,03,30,16,48,10.90
2011,03,30,16,49,10.80
2011,03,30,16,50,10.80
2011,03,30,16,51,10.80
2011,03,30,16,52,10.80
2011,03,30,16,53,10.80
2011,03,30,16,54,10.80
2011,03,30,16,55,10.70
2011,03,30,16,56,10.70
2011,03,30,16,57,10.70
2011,03,30,16,58,10.70
2011,03,30,16,59,10.60
2011,03,30,17,00,10.60
2011,03,30,17,01,10.60
2011,03,30,17,02,10.60
2011,03,30,17,03,10.50
2011,03,30,17,04,10.50
2011,03,30,17,05,10.60
2011,03,30,17,06,10.60
2011,03,30,17,07,10.60
2011,03,30,17,08,10.60
2011,03,30,17,09,10.60
2011,03,30,17,10,10.60
2011,03,30,17,11,10.60
2011,03,30,17,12,10.60
2011,03,30,17,13,10.60
2011,03,30,17,14,10.60
2011,03,30,17,15,10.60
2011,03,30,17,16,10.60
2011,03,30,17,17,10.60
2011,03,30,17,18,10.60
2011,03,30,17,19,10.60
2011,03,30,17,20,10.60
2011,03,30,17,21,10.60
2011,03,30,17,22,10.60
2011,03,30,17,23,10.60
2011,03,30,17,24,10.60
2011,03,30,17,25,10.60
2011,03,30,17,26,10.70
2011,03,30,17,27,10.70
2011,03,30,17,28,10.70
2011,03,30,17,29,10.70
2011,03,30,17,30,10.70
2011,03,30,17,31,10.70
2011,03,30,17,32,10.70
2011,03,30,17,33,10.70
2011,03,30,17,34,10.70
2011,03,30,17,35,10.70
2011,03,30,17,36,10.80
2011,03,30,17,37,10.80
2011,03,30,17,38,10.80
2011,03,30,17,39,10.80
2011,03,30,17,40,10.80
2011,03,30,17,41,10.80
2011,03,30,17,42,10.80
2011,03,30,17,43,10.80
2011,03,30,17,44,10.80
2011,03,30,17,45,10.80
2011,03,30,17,46,10.80
2011,03,30,17,47,10.80